Weather History for Erwin, NC

Change the Weather History Date:

Friday, February 8, 2013

  Actual Average Record
Temperature  
Mean Temperature 50 °F -  
Max Temperature 57 °F 51 °F 77 °F (2009)
Min Temperature 42 °F 29 °F 10 °F (1977)
Degree Days  
Heating Degree Days 16    
Moisture  
Dew Point 41 °F    
Average Humidity 80    
Maximum Humidity 99    
Minimum Humidity 51    
Precipitation  
Precipitation 0.48 in - - ()
Sea Level Pressure  
Sea Level Pressure 29.87 in    
Wind  
Wind Speed 10 mph (NW)    
Max Wind Speed 18 mph    
Max Gust Speed 26 mph    
Visibility 9 miles    
Events Rain    
Averages and records for this station are not official NWS values.
T = Trace of Precipitation, MM = Missing Value Source: NWS Daily Summary

Daily Weather History Graph

Daily Weather History Graph

Search for Another Location

Airport:

Trip Planner

Search our weather history database for the weather conditions in past years. The results will help you decide how hot, cold, wet, or windy it might be!

Date:

Astronomy

Feb. 08, 2013 Rise Set
Actual Time 7:08 AM EST 5:50 PM EST
Civil Twilight 6:41 AM EST 6:16 PM EST
Nautical Twilight 6:11 AM EST 6:46 PM EST
Astronomical Twilight 5:42 AM EST 7:16 PM EST
Moon 5:33 AM EST (2/8) 4:22 PM EST (2/8)
Length of Visible Light 11h 34m
Length of Day
10h 42m
Waning Crescent, 3% of the Moon is Illuminated
Feb 8
Waning Crescent
Feb 10
New
Feb 17
First Quarter
Feb 25
Full
Mar 4
Last Quarter

Hourly Weather History & Observations

Time (EST) Temp. Windchill Dew Point Humidity Pressure Visibility Wind Dir Wind Speed Gust Speed Precip Events Conditions
12:15 AM 47.3 °F - 46.4 °F 97% 29.92 in 4.0 mi NNE 10.4 mph 19.6 mph 0.04 in Rain Rain
12:35 AM 47.3 °F - 46.6 °F 97% 29.90 in 5.0 mi NNE 11.5 mph 19.6 mph 0.09 in Rain Rain
12:55 AM 46.9 °F - 46.4 °F 98% 29.87 in 7.0 mi North 11.5 mph 21.9 mph 0.12 in Rain Light Rain
1:15 AM 46.4 °F 40.1 °F 45.7 °F 97% 29.86 in 7.0 mi North 15.0 mph 20.7 mph 0.02 in Rain Rain
1:35 AM 46.0 °F 41.9 °F 45.3 °F 97% 29.86 in 5.0 mi North 8.1 mph 18.4 mph 0.06 in Rain Rain
1:55 AM 45.7 °F 40.2 °F 45.1 °F 98% 29.85 in 5.0 mi North 11.5 mph 18.4 mph 0.12 in Rain Rain
2:15 AM 45.7 °F 40.2 °F 45.3 °F 99% 29.83 in 5.0 mi North 11.5 mph 19.6 mph 0.06 in Rain Rain
2:35 AM 45.9 °F 40.8 °F 45.3 °F 98% 29.83 in 5.0 mi North 10.4 mph 16.1 mph 0.12 in Rain Rain
2:55 AM 45.7 °F 39.8 °F 45.1 °F 98% 29.82 in 5.0 mi North 12.7 mph 20.7 mph 0.18 in Rain Rain
3:15 AM 45.7 °F 40.2 °F 45.1 °F 98% 29.79 in 7.0 mi North 11.5 mph 21.9 mph 0.03 in Rain Rain
3:35 AM 45.5 °F 38.9 °F 44.8 °F 97% 29.78 in 10.0 mi North 15.0 mph 25.3 mph 0.05 in Rain Light Rain
3:55 AM 45.5 °F 38.9 °F 44.6 °F 97% 29.77 in 10.0 mi North 15.0 mph 23.0 mph 0.05 in   Light Drizzle
4:35 AM 45.5 °F 38.1 °F 43.9 °F 94% 29.76 in 10.0 mi North 18.4 mph 26.5 mph N/A   Overcast
4:55 AM 45.5 °F 39.6 °F 43.7 °F 93% 29.76 in 10.0 mi North 12.7 mph 21.9 mph N/A   Overcast
5:15 AM 45.7 °F 39.8 °F 44.2 °F 95% 29.77 in 10.0 mi NNW 12.7 mph 24.2 mph N/A   Overcast
5:35 AM 45.5 °F 38.6 °F 44.6 °F 97% 29.77 in 5.0 mi North 16.1 mph 23.0 mph N/A   Drizzle
5:55 AM 45.5 °F 39.9 °F 44.1 °F 95% 29.78 in 7.0 mi NNW 11.5 mph 20.7 mph N/A   Light Drizzle
6:15 AM 45.5 °F 41.3 °F 43.7 °F 93% 29.79 in 10.0 mi NW 8.1 mph 18.4 mph N/A   Overcast
6:35 AM 44.8 °F 39.9 °F 43.2 °F 94% 29.79 in 10.0 mi NW 9.2 mph - N/A   Overcast
6:55 AM 44.1 °F 39.0 °F 42.8 °F 95% 29.80 in 10.0 mi NNW 9.2 mph 17.3 mph N/A   Light Drizzle
7:15 AM 43.7 °F 37.3 °F 42.8 °F 97% 29.80 in 10.0 mi NNW 12.7 mph 16.1 mph N/A   Overcast
7:35 AM 43.5 °F 39.4 °F 42.3 °F 95% 29.82 in 10.0 mi NW 6.9 mph 16.1 mph N/A   Overcast
7:55 AM 43.7 °F 39.1 °F 42.3 °F 95% 29.83 in 10.0 mi NW 8.1 mph 16.1 mph N/A   Overcast
8:15 AM 43.7 °F 38.6 °F 42.3 °F 95% 29.83 in 10.0 mi NW 9.2 mph 18.4 mph N/A   Overcast
8:35 AM 43.9 °F 37.9 °F 42.4 °F 95% 29.84 in 10.0 mi NW 11.5 mph 16.1 mph N/A   Overcast
8:55 AM 42.8 °F 36.6 °F 41.4 °F 95% 29.84 in 10.0 mi NW 11.5 mph 18.4 mph N/A   Overcast
9:15 AM 43.0 °F 39.5 °F 41.4 °F 94% 29.84 in 10.0 mi NNW 5.8 mph - N/A   Overcast
9:35 AM 43.2 °F 37.9 °F 40.8 °F 91% 29.85 in 10.0 mi NW 9.2 mph 16.1 mph N/A   Overcast
9:55 AM 43.2 °F 37.0 °F 40.6 °F 91% 29.86 in 10.0 mi NW 11.5 mph - N/A   Overcast
10:15 AM 43.0 °F 38.2 °F 40.5 °F 91% 29.87 in 10.0 mi NW 8.1 mph 16.1 mph N/A   Overcast
10:35 AM 42.8 °F 38.6 °F 40.3 °F 91% 29.88 in 10.0 mi NW 6.9 mph 18.4 mph N/A   Overcast
10:55 AM 43.2 °F 36.6 °F 40.6 °F 91% 29.89 in 10.0 mi NW 12.7 mph 17.3 mph N/A   Overcast
11:15 AM 43.3 °F 38.1 °F 40.8 °F 91% 29.89 in 10.0 mi WNW 9.2 mph - N/A   Overcast
11:35 AM 44.1 °F 40.8 °F 41.4 °F 90% 29.89 in 10.0 mi NW 5.8 mph - N/A   Overcast
11:55 AM 45.3 °F 43.0 °F 41.7 °F 87% 29.88 in 10.0 mi WNW 4.6 mph - N/A   Overcast
12:15 PM 45.7 °F 44.4 °F 41.2 °F 84% 29.87 in 10.0 mi WNW 3.5 mph - N/A   Overcast
12:35 PM 46.2 °F 44.1 °F 40.6 °F 81% 29.87 in 10.0 mi WNW 4.6 mph - N/A   Overcast
12:55 PM 47.5 °F - 40.8 °F 78% 29.86 in 10.0 mi West 5.8 mph - N/A   Overcast
1:15 PM 48.7 °F - 41.0 °F 75% 29.86 in 10.0 mi West 4.6 mph - N/A   Overcast
1:35 PM 50.9 °F - 42.1 °F 72% 29.85 in 10.0 mi SW 3.5 mph - N/A   Overcast
1:55 PM 51.4 °F - 41.9 °F 70% 29.85 in 10.0 mi West 6.9 mph - N/A   Overcast
2:15 PM 51.4 °F - 41.9 °F 70% 29.85 in 10.0 mi WSW 9.2 mph - N/A   Overcast
2:35 PM 52.7 °F - 41.9 °F 67% 29.84 in 10.0 mi West 4.6 mph - N/A   Scattered Clouds
2:55 PM 54.1 °F - 42.1 °F 64% 29.84 in 10.0 mi WNW 4.6 mph - N/A   Clear
3:15 PM 55.6 °F - 42.4 °F 61% 29.84 in 10.0 mi West 9.2 mph - N/A   Scattered Clouds
3:35 PM 56.1 °F - 42.8 °F 61% 29.84 in 10.0 mi West 5.8 mph - 0.01 in   Scattered Clouds
3:55 PM 57.6 °F - 42.8 °F 58% 29.84 in 10.0 mi WNW 8.1 mph - 0.01 in   Mostly Cloudy
4:15 PM 56.5 °F - 42.6 °F 60% 29.84 in 10.0 mi WNW 8.1 mph - N/A   Mostly Cloudy
4:35 PM 56.5 °F - 42.8 °F 60% 29.85 in 10.0 mi West 8.1 mph - N/A   Mostly Cloudy
4:55 PM 55.2 °F - 43.0 °F 63% 29.85 in 10.0 mi Calm Calm - N/A   Scattered Clouds
5:15 PM 55.4 °F - 43.2 °F 63% 29.86 in 10.0 mi West 3.5 mph - N/A   Scattered Clouds
5:35 PM 54.5 °F - 43.3 °F 66% 29.86 in 10.0 mi West 3.5 mph - N/A   Clear
5:55 PM 54.0 °F - 43.3 °F 67% 29.87 in 10.0 mi WSW 3.5 mph - N/A   Clear
6:15 PM 53.2 °F - 43.7 °F 70% 29.87 in 10.0 mi Calm Calm - N/A   Clear
6:35 PM 52.7 °F - 43.7 °F 71% 29.88 in 10.0 mi WSW 4.6 mph - N/A   Clear
6:55 PM 52.0 °F - 43.9 °F 74% 29.89 in 10.0 mi SW 3.5 mph - N/A   Clear
7:15 PM 51.8 °F - 43.7 °F 74% 29.90 in 10.0 mi WSW 4.6 mph - N/A   Clear
7:35 PM 50.7 °F - 43.7 °F 77% 29.91 in 10.0 mi West 3.5 mph - N/A   Clear
7:55 PM 49.3 °F - 43.5 °F 81% 29.92 in 10.0 mi WNW 3.5 mph - N/A   Clear
8:15 PM 48.2 °F - 42.6 °F 81% 29.93 in 10.0 mi NW 4.6 mph - N/A   Clear
8:35 PM 49.5 °F - 39.9 °F 70% 29.95 in 10.0 mi NW 9.2 mph - N/A   Clear
8:55 PM 49.8 °F - 34.2 °F 55% 29.97 in 10.0 mi NNW 10.4 mph 19.6 mph N/A   Clear
9:15 PM 49.1 °F - 32.2 °F 52% 29.98 in 10.0 mi NW 10.4 mph 19.6 mph N/A   Clear
9:35 PM 48.2 °F - 32.0 °F 54% 30.00 in 10.0 mi NNW 11.5 mph 17.3 mph N/A   Clear
9:55 PM 47.3 °F - 31.3 °F 54% 30.01 in 10.0 mi NW 8.1 mph 18.4 mph N/A   Clear
10:15 PM 46.4 °F 41.9 °F 30.6 °F 54% 30.02 in 10.0 mi NW 9.2 mph 16.1 mph N/A   Clear
10:35 PM 45.5 °F 39.9 °F 29.8 °F 54% 30.04 in 10.0 mi NW 11.5 mph - N/A   Clear
10:55 PM 45.3 °F 39.3 °F 28.0 °F 51% 30.04 in 10.0 mi NW 12.7 mph 21.9 mph N/A   Clear
11:15 PM 44.4 °F 39.5 °F 28.0 °F 53% 30.05 in 10.0 mi NW 9.2 mph 16.1 mph N/A   Clear
11:35 PM 43.7 °F 39.7 °F 28.0 °F 54% 30.07 in 10.0 mi NW 6.9 mph - N/A   Clear
11:55 PM 42.8 °F 40.1 °F 27.9 °F 56% 30.07 in 10.0 mi WNW 4.6 mph - N/A   Clear